ESUT Weather Reports


time (UTC)temp
F
wind
direction
speed
knots
gust
knots
rain 1hr
in
rain 24hr
in
rain mn
in
humidity
%
barometer
mb
20260506143307 39 300 8.7 0.0 0.00 0.00 0.00 60 1008.0
20260506140307 39 310 8.7 0.0 0.00 0.00 0.00 60 1007.0
20260506133307 42 290 7.0 0.0 0.00 0.00 0.00 52 1007.0
20260506130308 41 310 8.7 0.0 0.00 0.00 0.00 56 1007.0
20260506123307 41 290 8.7 0.0 0.00 0.00 0.00 56 1007.0
20260506120308 39 310 8.7 0.0 0.00 0.00 0.00 60 1007.0
20260506113308 37 310 8.7 0.0 0.00 0.00 0.00 59 1007.0
20260506110307 39 300 7.8 0.0 0.00 0.00 0.00 48 1006.0
20260506103306 37 310 7.0 0.0 0.00 0.00 0.00 64 1006.0
20260506100308 39 310 7.8 0.0 0.00 0.00 0.00 60 1006.0
20260506093307 39 320 8.7 0.0 0.00 0.00 0.00 64 1006.0
20260506090307 35 280 7.8 0.0 0.00 0.00 0.00 69 1006.0
20260506083307 35 320 7.0 0.0 0.00 0.00 0.00 80 1005.0
20260506073307 33 330 6.1 0.0 0.00 0.00 0.00 80 1005.0
20260506070306 33 310 7.0 0.0 0.00 0.00 0.00 80 1004.0
20260506060306 32 290 7.0 0.0 0.00 0.00 0.00 92 1004.0
20260506050306 32 360 4.3 0.0 0.00 0.00 0.00 10 1003.0
20260506043307 30 0 1.7 0.0 0.00 0.00 0.00 10 1003.0
20260506040307 30 0 2.6 0.0 0.00 0.00 0.00 10 1003.0
20260506033307 30 90 1.7 0.0 0.00 0.00 0.00 10 1003.0
20260506030307 30 0 0.0 0.0 0.00 0.00 0.00 10 1002.0
20260506023306 30 210 1.7 0.0 0.00 0.00 0.00 10 1002.0
20260506020306 30 220 1.7 0.0 0.00 0.00 0.00 10 1002.0
20260506013307 30 0 0.0 0.0 0.00 0.00 0.00 10 1002.0
20260506010307 30 90 1.7 0.0 0.00 0.00 0.00 10 1002.0
20260506003306 30 0 1.7 0.0 0.00 0.00 0.00 10 1002.0
20260506000307 30 140 1.7 0.0 0.00 0.00 0.00 92 1002.0
20260505233307 32 0 2.6 0.0 0.00 0.00 0.00 80 1001.0
20260505230306 32 190 1.7 0.0 0.00 0.00 0.00 80 1002.0
20260505223306 32 0 2.6 0.0 0.00 0.00 0.00 80 1002.0
20260505220306 32 0 1.7 0.0 0.00 0.00 0.00 80 1002.0
20260505213306 32 0 1.7 0.0 0.00 0.00 0.00 80 1002.0
20260505210306 32 0 2.6 0.0 0.00 0.00 0.00 80 1002.0
20260505203306 32 0 1.7 0.0 0.00 0.00 0.00 80 1002.0
20260505200306 32 0 1.7 0.0 0.00 0.00 0.00 80 1002.0
20260505193306 32 330 2.6 0.0 0.00 0.00 0.00 80 1002.0
20260505190306 32 0 2.6 0.0 0.00 0.00 0.00 80 1002.0
20260505183306 32 280 4.3 0.0 0.00 0.00 0.00 74 1002.0
20260505180307 33 320 6.1 0.0 0.00 0.00 0.00 69 1002.0
20260505173307 33 280 6.1 0.0 0.00 0.00 0.00 64 1002.0
20260505170307 35 320 7.8 0.0 0.00 0.00 0.00 59 1001.0
20260505163307 35 310 10.4 0.0 0.00 0.00 0.00 55 1001.0
20260505160307 35 310 12.2 0.0 0.00 0.00 0.00 59 1001.0
20260505153307 35 320 7.8 0.0 0.00 0.00 0.00 64 1001.0
20260505150306 35 320 10.4 0.0 0.00 0.00 0.00 69 1002.0